Regional Weather Roundup
Issued by NWS

Home | Current Version | Previous Version | Text Only | Print | Product List | Glossary Off
Versions: 1 2 3 4 5 6 7 8 9 10 11 12 13 14 15 16 17 18 19 20 21 22 23 24 25 26 27 28 29 30 31 32 33 34 35 36 37 38 39 40 41 42 43 44 45 46 47 48 49 50

000
ASUS45 KBOU 040007
RWRCO

WEATHER ROUNDUP FOR COLORADO
NATIONAL WEATHER SERVICE DENVER/BOULDER CO
600 PM MDT TUE MAY 03 2016

NOTE: "FAIR" INDICATES FEW OR NO CLOUDS BELOW 12000 FEET WITH NO
SIGNIFICANT WEATHER AND/OR OBSTRUCTIONS TO VISIBILITY.

COZ001>005-013-030-031-040100-
...NORTHWEST COLORADO...

CITY           SKY/WX    TMP DP  RH WIND       PRES   REMARKS
CRAIG          FAIR      67  29  24 CALM      30.22F
HAYDEN         FAIR      64  27  24 NW10      30.24S
MEEKER         FAIR      68  20  16 CALM      30.22F
MOUNT WERNER   NOT AVBL
STEAMBOAT SPGS FAIR      64  27  24 S9        30.24S
WALDEN         FAIR      55  19  24 NW8       30.32S
$$

COZ006>008-011-040100-
...WEST CENTRAL VALLEYS...

CITY           SKY/WX    TMP DP  RH WIND       PRES   REMARKS
GRAND JUNCTION FAIR      72  30  21 W7        30.12F
MONTROSE       FAIR      70  23  17 NW13      30.18F
EAGLE          SUNNY     66  14  13 N6        30.22S
RIFLE          FAIR      72  24  16 W7        30.15F
DELTA          NOT AVBL
NUCLA          NOT AVBL
$$

COZ017>023-064>068-040100-
...SOUTHWEST COLORADO...

CITY           SKY/WX    TMP DP  RH WIND       PRES   REMARKS
DURANGO        FAIR      64  29  26 NW6       30.20S
CORTEZ         FAIR      70  29  21 S17       30.17S
PAGOSA SPRINGS FAIR      63  18  17 W3        30.25R
TELLURIDE      FAIR      57  14  18 CALM      30.33S
WOLF CREEK PAS CLOUDY    41  16  36 E5        30.49S
$$

COZ009-010-012-014-032>034-037-058>063-040100-
...CENTRAL COLORADO...

CITY           SKY/WX    TMP DP  RH WIND       PRES   REMARKS
ASPEN          FAIR      63  18  17 NW10      30.25S
BUENA VISTA    FAIR      61   9  13 NE10      30.27S
COPPER MTN     NOT AVBL
BERTHOUD PASS  FAIR      32  25  74 N12G20    30.50R WCI  23
COTTONWOOD PAS FAIR      55   1  11 SE5       30.37S
GUNNISON       FAIR      63  18  17 W6        30.26S
KREMMLING      FAIR      63   7  11 W6        30.26F
LEADVILLE      FAIR      52   5  15 N8        30.35S
MONARCH PASS   FAIR      37  14  38 NE15G24   30.57S
SALIDA         NOT AVBL
SUNLIGHT       FAIR      45  21  39 CALM      30.46S
WILKERSON PASS FAIR      37  16  41 E3        30.47R
$$

COZ069>075-040100-
...SAN LUIS VALLEY/SANGRE DE CRISTO MOUNTAINS...

CITY           SKY/WX    TMP DP  RH WIND       PRES   REMARKS
ALAMOSA        FAIR      62  11  13 VRB7      30.26R
LA VETA PASS   FAIR      39  25  56 N5        30.40R
SAGUACHE       FAIR      61  19  20 S10       30.27R
$$

COZ035-036-038>040-040100-
...NORTHERN COLORADO FRONT RANGE...

CITY           SKY/WX    TMP DP  RH WIND       PRES   REMARKS
DENVER INTL AP FAIR      65  28  24 N15G21    30.20F
DMNS CITY PARK   N/A     65  22  18 NE6G22    30.20S
AURORA         FAIR      64  28  25 N9        30.22S
FRONT RANGE AP MOSUNNY  N/A N/A N/A N14G22    30.21F
ERIE MUNI ARPT FAIR      67  25  21 NE9       30.20S
BOULDER MUN AP FAIR      66  28  24 NE3       30.20S
CENTENNIAL     FAIR      63  26  24 N15       30.22S
BROOMFIELD     MOSUNNY   66  28  24 N8        30.22S
FORT COLLINS   FAIR      68  34  28 NE15      30.19S
LONGMONT       FAIR      69  30  23 E6        30.21S
$$

COZ041-046-047-076>085-087-088-040100-
...PIKES PEAK/PALMER DIVIDE AND SOUTHERN FOOTHILLS...

CITY           SKY/WX    TMP DP  RH WIND       PRES   REMARKS
COLO. SPRINGS  FAIR      64  15  15 N13       30.24S
A. F. ACADEMY  FAIR      59  19  21 N13       30.24S
SCHRIEVER AFB  NOT AVBL
ELLICOTT       FAIR     N/A N/A N/A N17       30.22S
FALCON         FAIR      60  23  24 N15G21    30.27S
FORT CARSON    FAIR      65  20  18 N17G24    30.20F
LIMON          FAIR      63  31  30 N20G28    30.18S
MONUMENT HILL  FAIR      54  27  35 N15       30.28S
TRINIDAD       FAIR      63  23  21 N12       30.22R
$$

COZ042>045-048>051-090-091-040100-
...NORTHEAST COLORADO...

CITY           SKY/WX    TMP DP  RH WIND       PRES   REMARKS
GREELEY ARPT   FAIR      68  36  30 N13       30.18S
AKRON          FAIR      67  31  26 N16       30.14S
BURLINGTON     FAIR      66  28  24 N16       30.12S
WRAY           NOT AVBL
STERLING       FAIR      70  34  26 NE12      30.11S
HOLYOKE        NOT AVBL
FORT MORGAN    FAIR      70  32  24 N13G18    30.15S
$$

COZ086-089-092>099-040100-
...SOUTHEAST COLORADO...

CITY           SKY/WX    TMP DP  RH WIND       PRES   REMARKS
PUEBLO         FAIR      72  23  16 NE10      30.16S
LA JUNTA       FAIR      70  29  21 N20G25    30.14S
LAMAR          FAIR      71  28  20 N14       30.09S
SPRINGFIELD      N/A     64  29  26 N15G26    30.13R
$$



USA.gov is the U.S. government's official web portal to all federal, state and local government web resources and services.